Regional Weather Roundup
Issued by NWS

Home | Current Version | Previous Version | Graphics & Text | Print | Product List | Glossary On
Versions: 1 2 3 4 5 6 7 8 9 10 11 12 13 14 15 16 17 18 19 20 21 22 23 24 25 26 27 28 29 30 31 32 33 34 35 36 37 38 39 40 41 42 43 44 45 46 47 48 49 50
000
ASUS45 KCYS 270910
RWRWY

WYOMING REGIONAL WEATHER ROUNDUP
NATIONAL WEATHER SERVICE CHEYENNE WY
200 AM MST MON FEB 27 2017

NOTE:  "FAIR" INDICATES FEW OR NO CLOUDS BELOW 12,000 FEET
WITH NO SIGNIFICANT WEATHER AND/OR OBSTRUCTIONS TO VISIBILITY.

WYZ001-271000-
YELLOWSTONE NATIONAL PARK

CITY           SKY/WX    TMP DP  RH WIND       PRES   REMARKS
LK YELLOWSTONE   N/A      9   7  92 CALM      29.50F
W YELLOWSTONE  NOT AVBL

$$
WYZ002>013-054>058-071-098>099-271000-
NORTHERN WYOMING

CITY           SKY/WX    TMP DP  RH WIND       PRES   REMARKS
JACKSON        CLOUDY    16  16 100 SW14      29.56S WCI   1
CODY           FAIR      19   8  62 SE9       29.55F WCI   8
GREYBULL       FAIR      25  12  58 SE5       29.61F WCI  19
WORLAND        FAIR      21  12  68 SE12      29.60F WCI   9
SHERIDAN       FAIR      20  11  68 SE10G17   29.59S WCI   9
BUFFALO        FAIR      18   4  54 CALM      29.57S
GILLETTE       FAIR      24  10  55 SW9       29.61S WCI  14
HULETT         CLOUDY    27  12  54 SW9       29.63F WCI  17
NEWCASTLE      FAIR      23  12  63 SE10      29.69F WCI  12

$$
WYZ014>020-022>026-101>103-271000-
CENTRAL WYOMING

CITY           SKY/WX    TMP DP  RH WIND       PRES   REMARKS
BIG PINEY      LGT SNOW   9   6  88 CALM      29.60F
PINEDALE       LGT SNOW  12  10  92 CALM      29.60F
DUBOIS         FAIR      12   5  73 NW8G17    29.49F WCI   1
LANDER         MOCLDY    11   0  61 CALM      29.57F
RIVERTON       MOCLDY     8   3  80 N6        29.60S WCI  -2
CASPER         CLOUDY    19   8  62 SW18      29.63F WCI   4
DOUGLAS        FAIR      21   8  57 N6        29.67S WCI  13

$$
WYZ021-027>030-104>119-271000-
SOUTHERN WYOMING

CITY           SKY/WX    TMP DP  RH WIND       PRES   REMARKS
EVANSTON       FAIR      23  17  78 SW16      29.54F WCI  10
FORT BRIDGER   FAIR      11   6  79 CALM      29.61S
ROCK SPRINGS   MOCLDY    19   9  65 S8        29.59F WCI   9
DIXON            N/A     29  11  47 S13G20    29.70S WCI  19
RAWLINS        CLOUDY    23   7  50 S17       29.60F WCI   9
SARATOGA       FAIR      21  10  63 S12G17    29.65S WCI   9
LARAMIE        FAIR      19   6  57 SW17      29.63F WCI   4
CHEYENNE       FAIR       9   3  77 W7        29.69F WCI  -2
TORRINGTON     FAIR      11   4  73 E9        29.74F WCI  -2
PINE BLUFFS    FAIR       9   3  78 W8        29.75S WCI  -4

$$



USA.gov is the U.S. government's official web portal to all federal, state and local government web resources and services.